Time,TemperatureF,DewpointF,PressureIn,WindDirection,WindDirectionDegrees,WindSpeedMPH,WindSpeedGustMPH,Humidity,HourlyPrecipIn,Conditions,Clouds,dailyrainin,SoftwareType,DateUTC
2013-04-30 00:10:00,60.0,53.0,29.94,ESE,122,1.0,2.0,79,0.00,,,0.00,weatherlink.com 1.10,2013-04-30 04:10:00,
2013-04-30 00:25:00,59.8,54.0,29.94,SSW,200,1.0,3.0,80,0.00,,,0.00,weatherlink.com 1.10,2013-04-30 04:25:00,
2013-04-30 00:40:00,59.7,54.0,29.94,ESE,108,1.0,4.0,80,0.00,,,0.00,weatherlink.com 1.10,2013-04-30 04:40:00,
2013-04-30 00:55:00,59.7,53.0,29.94,SE,134,0.0,2.0,79,0.00,,,0.00,weatherlink.com 1.10,2013-04-30 04:55:00,
2013-04-30 01:10:00,59.7,53.0,29.94,ESE,121,0.0,3.0,79,0.00,,,0.00,weatherlink.com 1.10,2013-04-30 05:10:00,
2013-04-30 01:25:00,59.5,53.0,29.94,SE,146,0.0,3.0,80,0.00,,,0.00,weatherlink.com 1.10,2013-04-30 05:25:00,
2013-04-30 01:40:00,59.2,53.0,29.94,SE,138,0.0,4.0,80,0.00,,,0.00,weatherlink.com 1.10,2013-04-30 05:40:00,
2013-04-30 01:55:00,58.8,53.0,29.94,ESE,123,0.0,3.0,81,0.00,,,0.00,weatherlink.com 1.10,2013-04-30 05:55:00,
2013-04-30 02:10:00,58.6,53.0,29.95,SE,131,0.0,3.0,82,0.00,,,0.00,weatherlink.com 1.10,2013-04-30 06:10:00,
2013-04-30 02:25:00,58.3,53.0,29.94,ESE,117,2.0,3.0,82,0.00,,,0.00,weatherlink.com 1.10,2013-04-30 06:25:00,
2013-04-30 02:40:00,58.4,53.0,29.95,South,173,0.0,4.0,82,0.00,,,0.00,weatherlink.com 1.10,2013-04-30 06:40:00,
2013-04-30 02:55:00,58.2,53.0,29.94,ESE,104,1.0,3.0,82,0.00,,,0.00,weatherlink.com 1.10,2013-04-30 06:55:00,
2013-04-30 03:10:00,58.2,53.0,29.94,East,101,1.0,3.0,82,0.00,,,0.00,weatherlink.com 1.10,2013-04-30 07:10:00,
2013-04-30 03:25:00,58.3,53.0,29.93,SE,134,1.0,3.0,82,0.00,,,0.00,weatherlink.com 1.10,2013-04-30 07:25:00,
2013-04-30 03:40:00,58.1,53.0,29.93,SE,134,0.0,3.0,82,0.00,,,0.00,weatherlink.com 1.10,2013-04-30 07:40:00,
2013-04-30 03:55:00,58.0,53.0,29.94,WSW,243,0.0,4.0,82,0.00,,,0.00,weatherlink.com 1.10,2013-04-30 07:55:00,
2013-04-30 04:10:00,57.9,53.0,29.95,SW,222,4.0,4.0,83,0.00,,,0.00,weatherlink.com 1.10,2013-04-30 08:10:00,
2013-04-30 04:25:00,57.8,53.0,29.94,SSE,167,0.0,4.0,83,0.00,,,0.00,weatherlink.com 1.10,2013-04-30 08:25:00,
2013-04-30 04:40:00,57.6,53.0,29.93,SSE,148,1.0,4.0,83,0.00,,,0.00,weatherlink.com 1.10,2013-04-30 08:40:00,
2013-04-30 04:55:00,57.2,52.0,29.94,SSE,163,0.0,3.0,84,0.00,,,0.00,weatherlink.com 1.10,2013-04-30 08:55:00,
2013-04-30 05:10:00,57.1,52.0,29.93,SSW,199,0.0,3.0,84,0.00,,,0.00,weatherlink.com 1.10,2013-04-30 09:10:00,
2013-04-30 05:25:00,56.8,52.0,29.94,East,83,0.0,4.0,85,0.00,,,0.00,weatherlink.com 1.10,2013-04-30 09:25:00,
2013-04-30 05:40:00,56.7,52.0,29.94,SSE,153,1.0,4.0,85,0.00,,,0.00,weatherlink.com 1.10,2013-04-30 09:40:00,
2013-04-30 05:55:00,56.8,52.0,29.94,ESE,115,0.0,9.0,85,0.00,,,0.00,weatherlink.com 1.10,2013-04-30 09:55:00,
2013-04-30 06:10:00,56.8,52.0,29.93,SE,141,0.0,4.0,84,0.00,,,0.00,weatherlink.com 1.10,2013-04-30 10:10:00,
2013-04-30 06:25:00,56.6,52.0,29.93,South,191,2.0,6.0,85,0.00,,,0.00,weatherlink.com 1.10,2013-04-30 10:25:00,
2013-04-30 06:40:00,56.6,52.0,29.92,SSW,213,1.0,5.0,84,0.00,,,0.00,weatherlink.com 1.10,2013-04-30 10:40:00,
2013-04-30 06:55:00,56.9,52.0,29.94,ESE,119,0.0,7.0,84,0.00,,,0.00,weatherlink.com 1.10,2013-04-30 10:55:00,
2013-04-30 07:10:00,57.3,52.0,29.93,ESE,110,0.0,4.0,83,0.00,,,0.00,weatherlink.com 1.10,2013-04-30 11:10:00,
2013-04-30 07:25:00,57.7,52.0,29.94,West,276,1.0,8.0,82,0.00,,,0.00,weatherlink.com 1.10,2013-04-30 11:25:00,
2013-04-30 07:41:00,58.0,53.0,29.94,SE,135,1.0,4.0,82,0.00,,,0.00,weatherlink.com 1.10,2013-04-30 11:41:00,
2013-04-30 07:56:00,58.4,53.0,29.94,SE,146,2.0,7.0,81,0.00,,,0.00,weatherlink.com 1.10,2013-04-30 11:56:00,
2013-04-30 08:11:00,58.9,53.0,29.94,SE,131,1.0,6.0,81,0.00,,,0.00,weatherlink.com 1.10,2013-04-30 12:11:00,
2013-04-30 08:26:00,59.5,53.0,29.95,SW,222,1.0,3.0,80,0.00,,,0.00,weatherlink.com 1.10,2013-04-30 12:26:00,
2013-04-30 08:41:00,60.2,54.0,29.96,South,169,1.0,3.0,79,0.00,,,0.00,weatherlink.com 1.10,2013-04-30 12:41:00,
2013-04-30 08:56:00,60.8,54.0,29.96,SSW,200,0.0,5.0,77,0.00,,,0.00,weatherlink.com 1.10,2013-04-30 12:56:00,
2013-04-30 09:11:00,61.4,54.0,29.96,SE,138,0.0,4.0,77,0.00,,,0.00,weatherlink.com 1.10,2013-04-30 13:11:00,
2013-04-30 09:26:00,62.1,54.0,29.96,SE,124,2.0,4.0,75,0.00,,,0.00,weatherlink.com 1.10,2013-04-30 13:26:00,
2013-04-30 09:41:00,63.2,55.0,29.96,ESE,118,2.0,4.0,74,0.00,,,0.00,weatherlink.com 1.10,2013-04-30 13:41:00,
2013-04-30 09:56:00,64.0,55.0,29.96,SSW,201,1.0,5.0,73,0.00,,,0.00,weatherlink.com 1.10,2013-04-30 13:56:00,
2013-04-30 10:11:00,64.7,55.0,29.96,South,174,1.0,6.0,72,0.00,,,0.00,weatherlink.com 1.10,2013-04-30 14:11:00,
2013-04-30 10:26:00,66.4,57.0,29.96,SSE,152,2.0,4.0,71,0.00,,,0.00,weatherlink.com 1.10,2013-04-30 14:26:00,
2013-04-30 10:41:00,68.0,57.0,29.96,SE,136,3.0,9.0,67,0.00,,,0.00,weatherlink.com 1.10,2013-04-30 14:41:00,
2013-04-30 10:56:00,68.8,56.0,29.96,West,277,1.0,7.0,65,0.00,,,0.00,weatherlink.com 1.10,2013-04-30 14:56:00,
2013-04-30 11:11:00,69.6,57.0,29.97,North,6,0.0,7.0,65,0.00,,,0.00,weatherlink.com 1.10,2013-04-30 15:11:00,
2013-04-30 11:26:00,70.5,58.0,29.97,SSE,148,2.0,5.0,64,0.00,,,0.00,weatherlink.com 1.10,2013-04-30 15:26:00,
2013-04-30 11:41:00,71.4,58.0,29.97,South,170,3.0,5.0,63,0.00,,,0.00,weatherlink.com 1.10,2013-04-30 15:41:00,
2013-04-30 11:56:00,72.7,58.0,29.97,South,190,3.0,7.0,61,0.00,,,0.00,weatherlink.com 1.10,2013-04-30 15:56:00,
2013-04-30 12:11:00,73.5,59.0,29.97,SSE,158,2.0,5.0,60,0.00,,,0.00,weatherlink.com 1.10,2013-04-30 16:11:00,
2013-04-30 12:26:00,73.7,58.0,29.97,SE,127,2.0,5.0,59,0.00,,,0.00,weatherlink.com 1.10,2013-04-30 16:26:00,
2013-04-30 12:41:00,74.4,59.0,29.96,South,187,3.0,5.0,59,0.00,,,0.00,weatherlink.com 1.10,2013-04-30 16:41:00,
2013-04-30 12:56:00,74.4,59.0,29.96,SSW,208,1.0,5.0,60,0.00,,,0.00,weatherlink.com 1.10,2013-04-30 16:56:00,
2013-04-30 13:11:00,75.0,60.0,29.96,East,96,2.0,6.0,59,0.00,,,0.00,weatherlink.com 1.10,2013-04-30 17:11:00,
2013-04-30 13:26:00,77.0,60.0,29.96,SSE,162,3.0,6.0,56,0.00,,,0.00,weatherlink.com 1.10,2013-04-30 17:26:00,
2013-04-30 13:42:00,78.2,61.0,29.95,SE,131,4.0,7.0,56,0.00,,,0.00,weatherlink.com 1.10,2013-04-30 17:42:00,
2013-04-30 13:57:00,79.2,62.0,29.95,SE,130,6.0,8.0,56,0.00,,,0.00,weatherlink.com 1.10,2013-04-30 17:57:00,
2013-04-30 14:12:00,79.4,61.0,29.95,NNE,30,1.0,9.0,54,0.00,,,0.00,weatherlink.com 1.10,2013-04-30 18:12:00,
2013-04-30 14:27:00,79.7,62.0,29.95,SE,134,1.0,7.0,54,0.00,,,0.00,weatherlink.com 1.10,2013-04-30 18:27:00,
2013-04-30 14:42:00,80.7,62.0,29.95,NE,53,3.0,7.0,53,0.00,,,0.00,weatherlink.com 1.10,2013-04-30 18:42:00,
2013-04-30 14:57:00,81.4,62.0,29.94,ESE,118,3.0,8.0,52,0.00,,,0.00,weatherlink.com 1.10,2013-04-30 18:57:00,
2013-04-30 15:12:00,81.4,62.0,29.94,SE,126,1.0,9.0,52,0.00,,,0.00,weatherlink.com 1.10,2013-04-30 19:12:00,
2013-04-30 15:27:00,81.7,62.0,29.95,SE,139,4.0,8.0,51,0.00,,,0.00,weatherlink.com 1.10,2013-04-30 19:27:00,
2013-04-30 15:42:00,81.7,62.0,29.94,SSE,148,2.0,9.0,51,0.00,,,0.00,weatherlink.com 1.10,2013-04-30 19:42:00,
2013-04-30 15:57:00,82.1,62.0,29.94,SE,145,3.0,8.0,50,0.00,,,0.00,weatherlink.com 1.10,2013-04-30 19:57:00,
2013-04-30 16:12:00,83.4,62.0,29.93,WSW,238,1.0,7.0,48,0.00,,,0.00,weatherlink.com 1.10,2013-04-30 20:12:00,
2013-04-30 16:27:00,83.5,62.0,29.93,SSW,203,4.0,7.0,49,0.00,,,0.00,weatherlink.com 1.10,2013-04-30 20:27:00,
2013-04-30 16:42:00,83.5,62.0,29.93,West,277,1.0,8.0,49,0.00,,,0.00,weatherlink.com 1.10,2013-04-30 20:42:00,
2013-04-30 16:57:00,83.6,61.0,29.93,South,186,2.0,7.0,46,0.00,,,0.00,weatherlink.com 1.10,2013-04-30 20:57:00,
2013-04-30 17:12:00,84.0,62.0,29.93,ESE,111,2.0,8.0,47,0.00,,,0.00,weatherlink.com 1.10,2013-04-30 21:12:00,
2013-04-30 17:27:00,84.8,62.0,29.93,East,87,2.0,7.0,46,0.00,,,0.00,weatherlink.com 1.10,2013-04-30 21:27:00,
2013-04-30 17:42:00,83.6,61.0,29.93,ESE,122,0.0,8.0,46,0.00,,,0.00,weatherlink.com 1.10,2013-04-30 21:42:00,
2013-04-30 17:57:00,83.0,60.0,29.93,South,183,2.0,7.0,45,0.00,,,0.00,weatherlink.com 1.10,2013-04-30 21:57:00,
2013-04-30 18:12:00,82.5,60.0,29.94,SE,127,1.0,7.0,47,0.00,,,0.00,weatherlink.com 1.10,2013-04-30 22:12:00,
2013-04-30 18:27:00,82.4,61.0,29.94,South,177,6.0,9.0,48,0.00,,,0.00,weatherlink.com 1.10,2013-04-30 22:27:00,
2013-04-30 18:42:00,81.6,62.0,29.95,ESE,118,2.0,8.0,51,0.00,,,0.00,weatherlink.com 1.10,2013-04-30 22:42:00,
2013-04-30 18:57:00,81.2,62.0,29.95,SSE,157,2.0,7.0,52,0.00,,,0.00,weatherlink.com 1.10,2013-04-30 22:57:00,
2013-04-30 19:12:00,80.5,62.0,29.95,SE,143,1.0,7.0,54,0.00,,,0.00,weatherlink.com 1.10,2013-04-30 23:12:00,
2013-04-30 19:27:00,79.5,62.0,29.95,SE,146,3.0,6.0,55,0.00,,,0.00,weatherlink.com 1.10,2013-04-30 23:27:00,
2013-04-30 19:42:00,78.5,62.0,29.96,SSE,151,1.0,5.0,57,0.00,,,0.00,weatherlink.com 1.10,2013-04-30 23:42:00,
2013-04-30 19:57:00,77.6,62.0,29.96,SSW,195,1.0,7.0,59,0.00,,,0.00,weatherlink.com 1.10,2013-04-30 23:57:00,
2013-04-30 20:12:00,77.0,62.0,29.97,SE,131,0.0,6.0,61,0.00,,,0.00,weatherlink.com 1.10,2013-05-01 00:12:00,
2013-04-30 20:27:00,76.1,62.0,29.98,ESE,114,1.0,5.0,62,0.00,,,0.00,weatherlink.com 1.10,2013-05-01 00:27:00,
2013-04-30 20:42:00,75.1,62.0,29.98,NNW,338,0.0,3.0,64,0.00,,,0.00,weatherlink.com 1.10,2013-05-01 00:42:00,
2013-04-30 20:57:00,74.4,62.0,29.99,ESE,120,0.0,4.0,66,0.00,,,0.00,weatherlink.com 1.10,2013-05-01 00:57:00,
2013-04-30 21:12:00,73.7,62.0,29.99,ESE,120,5.0,5.0,67,0.00,,,0.00,weatherlink.com 1.10,2013-05-01 01:12:00,
2013-04-30 21:27:00,73.1,61.0,30.00,SSE,162,0.0,3.0,67,0.00,,,0.00,weatherlink.com 1.10,2013-05-01 01:27:00,
2013-04-30 21:42:00,72.7,62.0,30.00,SSW,195,1.0,6.0,68,0.00,,,0.00,weatherlink.com 1.10,2013-05-01 01:42:00,
2013-04-30 21:57:00,72.4,62.0,30.00,SE,125,0.0,5.0,69,0.00,,,0.00,weatherlink.com 1.10,2013-05-01 01:57:00,
2013-04-30 22:12:00,72.1,61.0,30.01,SSE,160,0.0,7.0,69,0.00,,,0.00,weatherlink.com 1.10,2013-05-01 02:12:00,
2013-04-30 22:27:00,71.5,61.0,30.02,ESE,123,0.0,4.0,70,0.00,,,0.00,weatherlink.com 1.10,2013-05-01 02:27:00,
2013-04-30 22:42:00,71.0,61.0,30.02,SE,125,1.0,4.0,71,0.00,,,0.00,weatherlink.com 1.10,2013-05-01 02:42:00,
2013-04-30 22:57:00,70.6,61.0,30.02,SE,142,2.0,3.0,72,0.00,,,0.00,weatherlink.com 1.10,2013-05-01 02:57:00,
2013-04-30 23:13:00,70.3,61.0,30.02,ESE,118,0.0,4.0,72,0.00,,,0.00,weatherlink.com 1.10,2013-05-01 03:13:00,
2013-04-30 23:28:00,69.9,61.0,30.02,SSE,158,1.0,4.0,73,0.00,,,0.00,weatherlink.com 1.10,2013-05-01 03:28:00,
2013-04-30 23:43:00,69.4,61.0,30.03,SE,145,2.0,3.0,74,0.00,,,0.00,weatherlink.com 1.10,2013-05-01 03:43:00,
2013-04-30 23:58:00,69.0,60.0,30.03,South,181,0.0,4.0,74,0.00,,,0.00,weatherlink.com 1.10,2013-05-01 03:58:00,